Date String (YYYY-MM-DD hh:mm:ss) UTC,Instrument flags,Ambient pressure (hPa),Sample flow (lpm),Bypass flow (lpm),Sample temperature (°C),Ambient temperature (°C),ASC tube jacket temperature (°C),LED temperature (°C),Box temperature (°C),Sample RH (%),Span deviation,Mass concentration (μg/m³),Mass concentration (μg/m³),Mass concentration (μg/m³)
DateTimeUTC,F1_M11,P_M11,Q1_M11,Q2_M11,T1_M11,T2_M11,T3_M11,T4_M11,T5_M11,U1_M11,ZSPAN_M11,X0_M11,X2_M11,X1_M11
2023-01-31 00:00:00,,0825.6,4.98,0.00,22.7,21.1,00.0,31.7,24.4,04.4,0003.4,0012.35,0007.15,0006.52
2023-01-31 00:01:00,,0825.7,5.00,0.00,22.7,21.0,00.0,31.6,24.4,04.4,0003.3,0012.30,0007.12,0006.51
2023-01-31 00:02:00,,0825.7,5.00,0.00,22.7,21.0,00.0,31.6,24.3,04.4,0003.4,0011.99,0007.13,0006.53
2023-01-31 00:03:00,,0825.7,4.99,0.00,22.7,20.9,00.0,31.6,24.3,04.4,0003.2,0011.52,0007.14,0006.52
2023-01-31 00:04:00,,0825.7,5.01,0.00,22.6,20.9,00.0,31.6,24.3,04.4,0003.1,0011.68,0007.14,0006.54
2023-01-31 00:05:00,,0825.7,5.03,0.00,22.7,21.4,00.0,31.6,24.5,04.4,0002.8,0011.60,0007.11,0006.53
2023-01-31 00:06:00,,0825.7,4.98,0.00,22.7,22.3,00.0,31.5,24.7,04.4,0002.5,0011.85,0007.13,0006.53
2023-01-31 00:07:00,,0825.7,5.01,0.00,22.8,22.8,00.0,31.5,24.9,04.4,0002.6,0012.50,0007.18,0006.52
2023-01-31 00:08:00,,0825.7,4.99,0.00,22.9,22.6,00.0,31.6,24.8,04.4,0002.2,0012.65,0007.21,0006.52
2023-01-31 00:09:00,,0825.6,5.00,0.00,22.9,22.2,00.0,31.6,24.7,04.4,0001.8,0012.03,0007.21,0006.51
2023-01-31 00:10:00,,0825.6,4.98,0.00,22.8,21.9,00.0,31.6,24.6,04.4,0001.5,0011.59,0007.19,0006.50
2023-01-31 00:11:00,,0825.6,5.01,0.00,22.8,21.6,00.0,31.6,24.5,04.4,0001.6,0011.62,0007.19,0006.50
2023-01-31 00:12:00,,0825.6,5.00,0.00,22.8,21.4,00.0,31.6,24.5,04.4,0001.8,0011.64,0007.20,0006.51
2023-01-31 00:13:00,,0825.6,5.02,0.00,22.8,21.3,00.0,31.6,24.4,04.4,0001.9,0011.80,0007.22,0006.50
2023-01-31 00:14:00,,0825.6,4.99,0.00,22.7,21.2,00.0,31.6,24.4,04.4,0002.0,0012.29,0007.26,0006.51
2023-01-31 00:15:00,,0825.6,4.97,0.00,22.7,21.1,00.0,31.6,24.4,04.4,0002.1,0012.15,0007.27,0006.50
2023-01-31 00:16:00,,0825.6,5.01,0.00,22.7,21.0,00.0,31.6,24.3,04.4,0002.4,0012.21,0007.28,0006.51
2023-01-31 00:17:00,,0825.6,5.00,0.00,22.6,20.9,00.0,31.6,24.3,04.3,0002.6,0012.91,0007.29,0006.52
2023-01-31 00:18:00,,0825.6,5.02,0.00,22.6,20.8,00.0,31.6,24.2,04.3,0002.4,0012.43,0007.29,0006.54
2023-01-31 00:19:00,,0825.7,5.01,0.00,22.6,21.1,00.0,31.5,24.3,04.3,0002.8,0012.37,0007.28,0006.54
2023-01-31 00:20:00,,0825.7,5.01,0.00,22.7,22.0,00.0,31.5,24.6,04.3,0002.6,0012.30,0007.25,0006.53
2023-01-31 00:21:00,,0825.7,5.03,0.00,22.8,22.8,00.0,31.5,24.8,04.3,0002.4,0012.35,0007.24,0006.51
2023-01-31 00:22:00,,0826.1,4.98,0.00,22.9,23.2,00.0,31.6,24.9,04.2,0002.1,0012.59,0007.23,0006.51
2023-01-31 00:23:00,,0825.7,4.99,0.00,22.9,22.8,00.0,31.6,24.9,04.2,0002.1,0012.74,0007.22,0006.50
2023-01-31 00:24:00,,0826.0,5.01,0.00,22.9,22.4,00.0,31.6,24.8,04.2,0002.1,0012.54,0007.20,0006.48
2023-01-31 00:25:00,,0826.0,4.99,0.00,22.9,22.0,00.0,31.7,24.6,04.2,0002.0,0012.08,0007.16,0006.47
2023-01-31 00:26:00,,0825.9,5.00,0.00,22.9,21.7,00.0,31.7,24.6,04.2,0001.6,0012.04,0007.13,0006.44
2023-01-31 00:27:00,,0825.7,5.03,0.00,22.8,21.5,00.0,31.7,24.5,04.2,0001.4,0012.04,0007.14,0006.43
2023-01-31 00:28:00,,0825.8,5.00,0.00,22.8,21.3,00.0,31.7,24.5,04.2,0001.1,0011.94,0007.14,0006.42
2023-01-31 00:29:00,,0825.9,4.96,0.00,22.8,21.2,00.0,31.7,24.4,04.2,0001.1,0012.00,0007.12,0006.39
2023-01-31 00:30:00,,0826.0,5.01,0.00,22.7,21.1,00.0,31.6,24.4,04.2,0001.2,0011.75,0007.03,0006.36
2023-01-31 00:31:00,,0826.4,5.01,0.00,22.7,21.0,00.0,31.6,24.4,04.2,0001.5,0011.70,0007.00,0006.36
2023-01-31 00:32:00,,0826.0,4.99,0.00,22.7,20.9,00.0,31.6,24.3,04.2,0001.6,0011.68,0007.02,0006.37
2023-01-31 00:33:00,,0825.7,4.97,0.00,22.6,20.8,00.0,31.6,24.3,04.2,0001.5,0011.40,0007.02,0006.36
2023-01-31 00:34:00,,0825.8,5.01,0.00,22.6,20.8,00.0,31.6,24.3,04.2,0000.8,0011.20,0007.00,0006.35
2023-01-31 00:35:00,,0825.9,5.01,0.00,22.6,21.0,00.0,31.6,24.3,04.2,0000.5,0011.26,0007.03,0006.35
2023-01-31 00:36:00,,0825.9,4.99,0.00,22.7,21.9,00.0,31.5,24.5,04.2,0000.4,0011.68,0007.07,0006.35
2023-01-31 00:37:00,,0825.9,5.00,0.00,22.8,22.7,00.0,31.5,24.8,04.2,0000.7,0011.94,0007.10,0006.36
2023-01-31 00:38:00,,0825.9,4.99,0.00,22.8,22.7,00.0,31.6,24.8,04.2,0000.4,0011.90,0007.11,0006.38
2023-01-31 00:39:00,,0826.0,5.00,0.00,22.8,22.3,00.0,31.6,24.7,04.2,0000.6,0011.62,0007.12,0006.39
2023-01-31 00:40:00,,0826.0,5.00,0.00,22.8,21.9,00.0,31.6,24.5,04.2,0000.9,0011.18,0007.06,0006.41
2023-01-31 00:41:00,,0826.0,4.99,0.00,22.8,21.6,00.0,31.6,24.5,04.2,0000.5,0011.30,0007.11,0006.44
2023-01-31 00:42:00,,0826.0,5.01,0.00,22.7,21.4,00.0,31.6,24.4,04.2,0000.4,0011.66,0007.19,0006.48
2023-01-31 00:43:00,,0826.1,5.00,0.00,22.7,21.2,00.0,31.6,24.3,04.2,0000.4,0011.66,0007.21,0006.50
2023-01-31 00:44:00,,0826.1,5.00,0.00,22.7,21.1,00.0,31.6,24.3,04.2,0000.2,0011.80,0007.21,0006.53
2023-01-31 00:45:00,,0826.2,5.00,0.00,22.6,21.0,00.0,31.6,24.3,04.2,0000.6,0012.57,0007.25,0006.56
2023-01-31 00:46:00,,0826.2,5.00,0.00,22.6,20.8,00.0,31.6,24.2,04.2,0001.0,0012.95,0007.24,0006.59
2023-01-31 00:47:00,,0826.1,5.02,0.00,22.6,20.8,00.0,31.5,24.2,04.3,0001.0,0012.88,0007.23,0006.61
2023-01-31 00:48:00,,0826.2,5.00,0.00,22.6,21.2,00.0,31.5,24.3,04.3,0001.2,0013.41,0007.25,0006.63
2023-01-31 00:49:00,,0826.2,5.00,0.00,22.7,22.0,00.0,31.5,24.5,04.2,0001.4,0013.42,0007.27,0006.64
2023-01-31 00:50:00,,0826.1,4.98,0.00,22.8,22.8,00.0,31.5,24.8,04.2,0001.2,0013.11,0007.30,0006.68
2023-01-31 00:51:00,,0826.1,5.01,0.00,22.9,23.1,00.0,31.5,24.9,04.2,0000.9,0013.44,0007.48,0006.80
2023-01-31 00:52:00,,0826.2,4.99,0.00,22.9,22.7,00.0,31.6,24.8,04.2,0001.0,0013.56,0007.59,0006.93
2023-01-31 00:53:00,,0826.2,5.01,0.00,22.9,22.2,00.0,31.6,24.7,04.2,0000.0,0013.54,0007.72,0007.07
2023-01-31 00:54:00,,0826.1,4.99,0.00,22.8,21.9,00.0,31.6,24.6,04.2,-000.3,0013.78,0007.92,0007.25
2023-01-31 00:55:00,,0826.2,5.00,0.00,22.8,21.6,00.0,31.6,24.5,04.2,0000.2,0014.06,0008.28,0007.58
2023-01-31 00:56:00,,0826.2,4.99,0.00,22.8,21.4,00.0,31.6,24.4,04.2,0000.3,0013.69,0008.57,0007.86
2023-01-31 00:57:00,,0826.2,5.00,0.00,22.7,21.2,00.0,31.6,24.4,04.2,0000.7,0013.52,0008.70,0007.97
2023-01-31 00:58:00,,0826.2,5.00,0.00,22.7,21.1,00.0,31.6,24.3,04.2,0000.9,0013.38,0008.79,0008.03
2023-01-31 00:59:00,,0826.2,5.02,0.00,22.6,20.9,00.0,31.6,24.3,04.3,0000.9,0013.10,0008.82,0008.06
